STARLINK-11232, 60401

Orbit data source: Space-Track

STARLINK-11232, 60401 is a payload satellite owned by SpaceX/Seattle (US) in LEO that was launched on Sat, 10 Aug 2024 UTC via an FALCON 9 launch vehicle from the Air Force Eastern Test Range (AFETR). Payload-class satellites include a variety of spacecraft equipped with specific instruments for various scientific and technological missions. These include communications satellites like Starlink; space stations such as the ISS; scientific satellites like the Hubble; Earth observation satellites from companies like Planet Labs, Umbra, and HawkEye 360; GPS; miniature CubeSats for education and research; and military/defense satellites.

Loading next visibility...
Identifier
60401, 2024-141D
Orbit
LEO
Country
Flag of USUS
Related business
Manufacturer
SpaceX/Seattle
Mission
Operational Commercial Communications
Bus & Motor
STARLINK V2MD, Unknown motor
Mass
960 kg wet, ~910 kg dry
Launch date (UTC)
2024-08-10 (1 year ago)
Launch vehicle
FALCON 9
Launch site
Air Force Eastern Test Range (AFETR)
Object type
Payload
Rocket body
Debris
Shape & HBR
Box + 2 Pan, 14.5 m
Radar Cross Section
36.964 m², Large (>1 m²)

Expand to show TLE details & history
Last TLE update: 22 hours ago

TLE from 22 hours ago
0 STARLINK-11232
1 60401U 24141D   25260.29964136 -.00001486  00000-0 -74093-5 0  9997
2 60401  53.1590 220.7478 0001265  87.4106 272.7056 15.69703157 64515
Epoch: 2025-09-17T07:11Z
TLE epoch observation values (Epoch: 2025-09-17T07:11:29.013Z)
Latitude
-0.00008°
Longitude
116.39927°
Altitude
360.621 km
Speed
7.694 km/s
True Right ascension
14h 42m 59s
True Declination
0° 00' 00"
Sunlit
Object was in daylight at epoch
Visualization orbit readout
Latitude
Unknown
Longitude
Unknown
Altitude
Unknown
Speed
Unknown
Apparent Right ascension
Unknown
Apparent Declination
Unknown
Sunlit
N/A
Visualization observer readout
Local Sidereal Time
21:57:55
Azimuth
Unknown
Elevation
Unknown
Doppler factor
Unknown
Orbital elements
Apogee altitude
360.86 km
Perigee altitude
359.155 km
Semi-major axis
6,738.144 km
Eccentricity
0.00013
Inclination
53.159°
RAAN
220.7478°
Arg. of periapsis
87.4106°
True anomaly
272.69112°
Mean anomaly
272.7056°
Eccentric anomaly
272.69836°
Mean motion
3.92403 °/min
Orbital period
91.74 mins
BSTAR
-0.0000074093
Loading maneuver chart data...
Computing Atmospheric mass density...
Loading historical data...
Loading historical data...
Loading historical data...
Loading historical data...
Loading historical data...
Loading historical data...
Loading historical data...

Documentation

Showing up to 5 results
|